Tabellarische Ansicht des 17.3.2023


Die einzelnen Werte des Tages

Uhrzeit Temperatur Luftdruck Luftfeuchte Wind Hi-Wind Taupunkt THW Index Wind Chill Heat Index Solar- strahlung Regen

00:00

6.9 C

1007.8 hpa

66 %

17.7 km/h aus 117

32.2 km/h aus SE

1.0 C

3.1 C

3.5 C

6.5 C

0 W/m

0.00 mm

00:05

6.9 C

1007.8 hpa

66 %

16.1 km/h aus 113

37.0 km/h aus ESE

1.0 C

3.4 C

3.8 C

6.5 C

0 W/m

0.00 mm

00:10

6.8 C

1007.8 hpa

66 %

14.5 km/h aus 115

30.6 km/h aus SSE

0.9 C

3.5 C

3.9 C

6.4 C

0 W/m

0.00 mm

00:15

6.7 C

1007.6 hpa

66 %

12.9 km/h aus 116

30.6 km/h aus ESE

0.8 C

3.8 C

4.2 C

6.3 C

0 W/m

0.00 mm

00:20

6.7 C

1007.6 hpa

66 %

12.9 km/h aus 116

20.9 km/h aus ESE

0.8 C

3.7 C

4.1 C

6.3 C

0 W/m

0.00 mm

00:25

6.6 C

1007.6 hpa

66 %

6.4 km/h aus 117

17.7 km/h aus E

0.7 C

5.1 C

5.4 C

6.2 C

0 W/m

0.00 mm

00:30

6.6 C

1007.7 hpa

66 %

11.3 km/h aus 116

24.1 km/h aus ESE

0.7 C

3.9 C

4.3 C

6.2 C

0 W/m

0.00 mm

00:35

6.5 C

1007.7 hpa

66 %

11.3 km/h aus 116

24.1 km/h aus ESE

0.6 C

3.8 C

4.2 C

6.1 C

0 W/m

0.00 mm

00:40

6.5 C

1007.7 hpa

67 %

14.5 km/h aus 114

24.1 km/h aus ESE

0.8 C

3.2 C

3.6 C

6.2 C

0 W/m

0.00 mm

00:45

6.4 C

1007.7 hpa

67 %

12.9 km/h aus 117

25.7 km/h aus SE

0.8 C

3.5 C

3.8 C

6.1 C

0 W/m

0.00 mm

00:50

6.5 C

1007.7 hpa

67 %

16.1 km/h aus 117

29.0 km/h aus S

0.8 C

2.9 C

3.3 C

6.2 C

0 W/m

0.00 mm

00:55

6.5 C

1007.7 hpa

67 %

16.1 km/h aus 117

29.0 km/h aus S

0.8 C

2.9 C

3.3 C

6.2 C

0 W/m

0.00 mm

01:00

6.6 C

1007.3 hpa

66 %

17.7 km/h aus 118

32.2 km/h aus ESE

0.7 C

2.8 C

3.2 C

6.2 C

0 W/m

0.00 mm

01:05

6.7 C

1007.3 hpa

66 %

16.1 km/h aus 115

30.6 km/h aus SE

0.8 C

3.1 C

3.5 C

6.3 C

0 W/m

0.00 mm

01:10

6.7 C

1007.3 hpa

66 %

14.5 km/h aus 114

25.7 km/h aus SSE

0.8 C

3.4 C

3.8 C

6.3 C

0 W/m

0.00 mm

01:15

6.7 C

1007.3 hpa

66 %

11.3 km/h aus 117

29.0 km/h aus ESE

0.8 C

4.1 C

4.5 C

6.3 C

0 W/m

0.00 mm

01:20

6.7 C

1007.3 hpa

66 %

8.0 km/h aus 117

20.9 km/h aus SE

0.8 C

4.7 C

5.1 C

6.3 C

0 W/m

0.00 mm

01:25

6.7 C

1007.3 hpa

66 %

8.0 km/h aus 116

17.7 km/h aus SSE

0.8 C

4.7 C

5.1 C

6.3 C

0 W/m

0.00 mm

01:30

6.6 C

1007.7 hpa

66 %

6.4 km/h aus 116

19.3 km/h aus ESE

0.7 C

5.1 C

5.4 C

6.2 C

0 W/m

0.00 mm

01:35

6.6 C

1007.7 hpa

66 %

9.7 km/h aus 114

22.5 km/h aus SE

0.7 C

4.2 C

4.6 C

6.2 C

0 W/m

0.00 mm

01:40

6.6 C

1007.7 hpa

66 %

8.0 km/h aus 116

17.7 km/h aus SSE

0.7 C

4.6 C

5.0 C

6.2 C

0 W/m

0.00 mm

01:45

6.6 C

1007.5 hpa

66 %

8.0 km/h aus 117

24.1 km/h aus SSE

0.7 C

4.6 C

5.0 C

6.2 C

0 W/m

0.00 mm

01:50

6.6 C

1007.5 hpa

66 %

6.4 km/h aus 117

19.3 km/h aus ESE

0.7 C

5.0 C

5.4 C

6.2 C

0 W/m

0.00 mm

01:55

6.6 C

1007.5 hpa

66 %

9.7 km/h aus 117

20.9 km/h aus SE

0.7 C

4.3 C

4.7 C

6.2 C

0 W/m

0.00 mm

02:00

6.7 C

1007.3 hpa

66 %

8.0 km/h aus 115

20.9 km/h aus SSE

0.8 C

4.7 C

5.1 C

6.3 C

0 W/m

0.00 mm

02:05

6.6 C

1007.3 hpa

66 %

6.4 km/h aus 115

17.7 km/h aus SSE

0.7 C

5.1 C

5.4 C

6.2 C

0 W/m

0.00 mm

02:10

6.6 C

1007.3 hpa

66 %

9.7 km/h aus 117

19.3 km/h aus SE

0.7 C

4.3 C

4.7 C

6.2 C

0 W/m

0.00 mm

02:15

6.6 C

1007.2 hpa

66 %

8.0 km/h aus 117

17.7 km/h aus ESE

0.7 C

4.7 C

5.1 C

6.2 C

0 W/m

0.00 mm

02:20

6.6 C

1007.2 hpa

66 %

8.0 km/h aus 115

19.3 km/h aus ESE

0.7 C

4.6 C

5.0 C

6.2 C

0 W/m

0.00 mm

02:25

6.6 C

1007.2 hpa

66 %

8.0 km/h aus 116

17.7 km/h aus ESE

0.7 C

4.6 C

5.0 C

6.2 C

0 W/m

0.00 mm

02:30

6.6 C

1006.9 hpa

66 %

12.9 km/h aus 115

22.5 km/h aus SSE

0.7 C

3.6 C

4.0 C

6.2 C

0 W/m

0.00 mm

02:35

6.7 C

1006.9 hpa

66 %

11.3 km/h aus 115

24.1 km/h aus SSE

0.8 C

4.1 C

4.4 C

6.3 C

0 W/m

0.00 mm

02:40

6.7 C

1006.9 hpa

66 %

12.9 km/h aus 117

27.4 km/h aus SSE

0.8 C

3.7 C

4.1 C

6.3 C

0 W/m

0.00 mm

02:45

6.7 C

1007.3 hpa

66 %

11.3 km/h aus 117

22.5 km/h aus ESE

0.8 C

4.1 C

4.4 C

6.3 C

0 W/m

0.00 mm

02:50

6.7 C

1007.3 hpa

66 %

6.4 km/h aus 117

17.7 km/h aus SSE

0.8 C

5.2 C

5.6 C

6.3 C

0 W/m

0.00 mm

02:55

6.7 C

1007.3 hpa

66 %

6.4 km/h aus 117

19.3 km/h aus SSE

0.8 C

5.2 C

5.6 C

6.3 C

0 W/m

0.00 mm

03:00

6.8 C

1007.3 hpa

66 %

9.7 km/h aus 114

22.5 km/h aus SSE

0.9 C

4.4 C

4.8 C

6.4 C

0 W/m

0.00 mm

03:05

6.8 C

1007.3 hpa

66 %

14.5 km/h aus 115

24.1 km/h aus SSE

0.9 C

3.5 C

3.9 C

6.4 C

0 W/m

0.00 mm

03:10

6.7 C

1007.3 hpa

66 %

8.0 km/h aus 118

19.3 km/h aus SSE

0.8 C

4.8 C

5.2 C

6.3 C

0 W/m

0.00 mm

03:15

6.7 C

1007.2 hpa

66 %

4.8 km/h aus 116

16.1 km/h aus SE

0.8 C

5.7 C

6.1 C

6.3 C

0 W/m

0.00 mm

03:20

6.6 C

1007.2 hpa

67 %

11.3 km/h aus 117

20.9 km/h aus SE

0.9 C

4.0 C

4.3 C

6.2 C

0 W/m

0.00 mm

03:25

6.6 C

1007.2 hpa

67 %

11.3 km/h aus 117

24.1 km/h aus SSE

0.9 C

4.0 C

4.3 C

6.2 C

0 W/m

0.00 mm

03:30

6.6 C

1007.2 hpa

67 %

6.4 km/h aus 113

17.7 km/h aus ESE

0.9 C

5.1 C

5.4 C

6.3 C

0 W/m

0.00 mm

03:35

6.6 C

1007.2 hpa

67 %

4.8 km/h aus 116

14.5 km/h aus SE

0.9 C

5.6 C

5.9 C

6.2 C

0 W/m

0.00 mm

03:40

6.6 C

1007.2 hpa

67 %

3.2 km/h aus 116

14.5 km/h aus SE

0.9 C

6.2 C

6.6 C

6.2 C

0 W/m

0.00 mm

03:45

6.6 C

1007.2 hpa

67 %

4.8 km/h aus 116

12.9 km/h aus ESE

0.9 C

5.6 C

5.9 C

6.2 C

0 W/m

0.00 mm

03:50

6.6 C

1007.2 hpa

67 %

4.8 km/h aus 115

17.7 km/h aus SE

0.9 C

5.6 C

5.9 C

6.2 C

0 W/m

0.00 mm

03:55

6.5 C

1007.2 hpa

67 %

6.4 km/h aus 116

16.1 km/h aus ESE

0.8 C

5.0 C

5.3 C

6.2 C

0 W/m

0.00 mm

04:00

6.4 C

1007.2 hpa

67 %

6.4 km/h aus 114

16.1 km/h aus ESE

0.8 C

4.9 C

5.3 C

6.1 C

0 W/m

0.00 mm

04:05

6.4 C

1007.2 hpa

67 %

8.0 km/h aus 115

17.7 km/h aus ESE

0.7 C

4.4 C

4.8 C

6.1 C

0 W/m

0.00 mm

04:10

6.3 C

1007.2 hpa

67 %

11.3 km/h aus 118

20.9 km/h aus ESE

0.6 C

3.7 C

4.1 C

6.0 C

0 W/m

0.00 mm

04:15

6.3 C

1006.8 hpa

67 %

12.9 km/h aus 116

29.0 km/h aus SE

0.6 C

3.4 C

3.7 C

6.0 C

0 W/m

0.00 mm

04:20

6.4 C

1006.8 hpa

67 %

12.9 km/h aus 117

27.4 km/h aus SE

0.7 C

3.4 C

3.8 C

6.1 C

0 W/m

0.00 mm

04:25

6.4 C

1006.8 hpa

67 %

14.5 km/h aus 115

29.0 km/h aus SE

0.7 C

3.1 C

3.4 C

6.1 C

0 W/m

0.00 mm

04:30

6.4 C

1006.5 hpa

67 %

12.9 km/h aus 114

24.1 km/h aus SE

0.8 C

3.5 C

3.8 C

6.1 C

0 W/m

0.00 mm

04:35

6.4 C

1006.5 hpa

67 %

14.5 km/h aus 116

27.4 km/h aus SSE

0.8 C

3.2 C

3.5 C

6.1 C

0 W/m

0.00 mm

04:40

6.4 C

1006.5 hpa

67 %

12.9 km/h aus 117

27.4 km/h aus ESE

0.7 C

3.4 C

3.8 C

6.1 C

0 W/m

0.00 mm

04:45

6.3 C

1006.3 hpa

67 %

12.9 km/h aus 117

25.7 km/h aus SE

0.6 C

3.4 C

3.7 C

6.0 C

0 W/m

0.00 mm

04:50

6.3 C

1006.3 hpa

67 %

14.5 km/h aus 117

30.6 km/h aus SE

0.6 C

3.1 C

3.4 C

6.0 C

0 W/m

0.00 mm

04:55

6.4 C

1006.3 hpa

67 %

14.5 km/h aus 115

27.4 km/h aus ESE

0.7 C

3.1 C

3.4 C

6.1 C

0 W/m

0.00 mm

05:00

6.4 C

1006.3 hpa

67 %

17.7 km/h aus 113

27.4 km/h aus SSE

0.7 C

2.6 C

2.9 C

6.1 C

0 W/m

0.00 mm

05:05

6.4 C

1006.3 hpa

67 %

14.5 km/h aus 116

29.0 km/h aus SSE

0.8 C

3.2 C

3.5 C

6.1 C

0 W/m

0.00 mm

05:10

6.4 C

1006.3 hpa

67 %

14.5 km/h aus 117

30.6 km/h aus ESE

0.8 C

3.2 C

3.5 C

6.1 C

0 W/m

0.00 mm

05:15

6.4 C

1006.2 hpa

67 %

14.5 km/h aus 118

29.0 km/h aus SSE

0.8 C

3.2 C

3.5 C

6.1 C

0 W/m

0.00 mm

05:20

6.4 C

1006.2 hpa

67 %

14.5 km/h aus 117

27.4 km/h aus SE

0.8 C

3.2 C

3.5 C

6.1 C

0 W/m

0.00 mm

05:25

6.5 C

1006.2 hpa

67 %

16.1 km/h aus 114

29.0 km/h aus SE

0.8 C

2.9 C

3.3 C

6.2 C

0 W/m

0.00 mm

05:30

6.5 C

1006.2 hpa

67 %

14.5 km/h aus 115

29.0 km/h aus SE

0.8 C

3.2 C

3.6 C

6.2 C

0 W/m

0.00 mm

05:35

6.4 C

1006.2 hpa

67 %

17.7 km/h aus 115

32.2 km/h aus E

0.8 C

2.7 C

3.0 C

6.1 C

0 W/m

0.00 mm

05:40

6.4 C

1006.2 hpa

67 %

12.9 km/h aus 117

37.0 km/h aus SE

0.8 C

3.5 C

3.8 C

6.1 C

0 W/m

0.00 mm

05:45

6.4 C

1006.2 hpa

67 %

11.3 km/h aus 117

27.4 km/h aus SSE

0.8 C

3.8 C

4.2 C

6.1 C

0 W/m

0.00 mm

05:50

6.4 C

1006.2 hpa

67 %

12.9 km/h aus 117

24.1 km/h aus SSE

0.8 C

3.5 C

3.8 C

6.1 C

0 W/m

0.00 mm

05:55

6.4 C

1006.2 hpa

67 %

14.5 km/h aus 114

27.4 km/h aus SE

0.7 C

3.1 C

3.4 C

6.1 C

0 W/m

0.00 mm

06:00

6.3 C

1006.2 hpa

67 %

11.3 km/h aus 116

29.0 km/h aus SSE

0.6 C

3.7 C

4.1 C

6.0 C

0 W/m

0.00 mm

06:05

6.3 C

1006.2 hpa

67 %

12.9 km/h aus 117

25.7 km/h aus SSE

0.6 C

3.3 C

3.7 C

5.9 C

0 W/m

0.00 mm

06:10

6.3 C

1006.2 hpa

67 %

11.3 km/h aus 117

22.5 km/h aus SE

0.6 C

3.7 C

4.0 C

5.9 C

0 W/m

0.00 mm

06:15

6.3 C

1006.1 hpa

67 %

8.0 km/h aus 117

20.9 km/h aus ESE

0.6 C

4.3 C

4.7 C

5.9 C

0 W/m

0.00 mm

06:20

6.2 C

1006.1 hpa

67 %

8.0 km/h aus 115

16.1 km/h aus SE

0.5 C

4.2 C

4.6 C

5.8 C

0 W/m

0.00 mm

06:25

6.2 C

1006.1 hpa

68 %

8.0 km/h aus 114

17.7 km/h aus SE

0.7 C

4.2 C

4.5 C

5.8 C

0 W/m

0.00 mm

06:30

6.1 C

1006.1 hpa

68 %

8.0 km/h aus 114

20.9 km/h aus ESE

0.6 C

4.1 C

4.4 C

5.8 C

0 W/m

0.00 mm

06:35

6.1 C

1006.1 hpa

68 %

11.3 km/h aus 117

22.5 km/h aus SE

0.6 C

3.4 C

3.8 C

5.8 C

1 W/m

0.00 mm

06:40

6.1 C

1006.1 hpa

68 %

11.3 km/h aus 117

24.1 km/h aus ESE

0.6 C

3.4 C

3.8 C

5.8 C

5 W/m

0.00 mm

06:45

6.2 C

1005.9 hpa

68 %

12.9 km/h aus 117

22.5 km/h aus SE

0.7 C

3.2 C

3.5 C

5.8 C

8 W/m

0.00 mm

06:50

6.2 C

1005.9 hpa

68 %

11.3 km/h aus 116

25.7 km/h aus S

0.7 C

3.5 C

3.8 C

5.8 C

10 W/m

0.00 mm

06:55

6.2 C

1005.9 hpa

68 %

12.9 km/h aus 113

22.5 km/h aus SE

0.7 C

3.2 C

3.5 C

5.8 C

12 W/m

0.00 mm

07:00

6.2 C

1006.2 hpa

68 %

11.3 km/h aus 117

24.1 km/h aus SSE

0.7 C

3.5 C

3.8 C

5.8 C

15 W/m

0.00 mm

07:05

6.2 C

1006.2 hpa

68 %

11.3 km/h aus 117

20.9 km/h aus SSE

0.7 C

3.6 C

3.9 C

5.9 C

18 W/m

0.00 mm

07:10

6.3 C

1006.2 hpa

68 %

12.9 km/h aus 114

22.5 km/h aus SSE

0.9 C

3.4 C

3.7 C

6.0 C

21 W/m

0.00 mm

07:15

6.4 C

1005.8 hpa

67 %

14.5 km/h aus 117

24.1 km/h aus SSE

0.8 C

3.2 C

3.5 C

6.1 C

24 W/m

0.00 mm

07:20

6.6 C

1005.8 hpa

67 %

12.9 km/h aus 115

30.6 km/h aus SE

0.9 C

3.7 C

4.0 C

6.2 C

28 W/m

0.00 mm

07:25

6.7 C

1005.8 hpa

66 %

16.1 km/h aus 115

27.4 km/h aus ESE

0.8 C

3.2 C

3.6 C

6.3 C

32 W/m

0.00 mm

07:30

6.9 C

1006.0 hpa

66 %

14.5 km/h aus 117

27.4 km/h aus E

1.0 C

3.7 C

4.1 C

6.5 C

33 W/m

0.00 mm

07:35

7.0 C

1006.0 hpa

65 %

16.1 km/h aus 117

27.4 km/h aus SE

0.9 C

3.5 C

3.9 C

6.6 C

33 W/m

0.00 mm

07:40

7.1 C

1006.0 hpa

65 %

14.5 km/h aus 116

29.0 km/h aus ESE

1.0 C

3.9 C

4.3 C

6.7 C

33 W/m

0.00 mm

07:45

7.2 C

1005.8 hpa

65 %

14.5 km/h aus 116

27.4 km/h aus SE

1.1 C

4.1 C

4.4 C

6.8 C

36 W/m

0.00 mm

07:50

7.3 C

1005.8 hpa

64 %

16.1 km/h aus 115

25.7 km/h aus ESE

1.0 C

3.9 C

4.3 C

6.9 C

39 W/m

0.00 mm

07:55

7.4 C

1005.8 hpa

64 %

14.5 km/h aus 114

25.7 km/h aus SE

1.0 C

4.3 C

4.7 C

7.0 C

41 W/m

0.00 mm

08:00

7.5 C

1005.7 hpa

64 %

17.7 km/h aus 117

29.0 km/h aus ESE

1.1 C

3.8 C

4.2 C

7.1 C

96 W/m

0.00 mm

08:05

7.7 C

1005.7 hpa

64 %

16.1 km/h aus 117

33.8 km/h aus ESE

1.3 C

4.3 C

4.7 C

7.3 C

127 W/m

0.00 mm

08:10

7.9 C

1005.7 hpa

63 %

19.3 km/h aus 117

35.4 km/h aus ESE

1.3 C

4.1 C

4.5 C

7.6 C

199 W/m

0.00 mm

08:15

8.2 C

1006.0 hpa

62 %

17.7 km/h aus 115

32.2 km/h aus SE

1.3 C

4.6 C

5.0 C

7.7 C

181 W/m

0.00 mm

08:20

8.4 C

1006.0 hpa

61 %

16.1 km/h aus 114

27.4 km/h aus SE

1.3 C

5.1 C

5.5 C

7.9 C

159 W/m

0.00 mm

08:25

8.5 C

1006.0 hpa

61 %

14.5 km/h aus 117

25.7 km/h aus ESE

1.4 C

5.5 C

5.9 C

8.1 C

205 W/m

0.00 mm

08:30

8.7 C

1006.0 hpa

61 %

11.3 km/h aus 118

27.4 km/h aus SE

1.6 C

6.4 C

6.9 C

8.3 C

250 W/m

0.00 mm

08:35

8.8 C

1006.0 hpa

60 %

14.5 km/h aus 117

27.4 km/h aus ESE

1.5 C

5.9 C

6.3 C

8.4 C

214 W/m

0.00 mm

08:40

8.9 C

1006.0 hpa

60 %

11.3 km/h aus 117

22.5 km/h aus SSE

1.6 C

6.7 C

7.2 C

8.5 C

209 W/m

0.00 mm

08:45

8.9 C

1005.7 hpa

60 %

11.3 km/h aus 113

27.4 km/h aus SE

1.6 C

6.7 C

7.2 C

8.5 C

201 W/m

0.00 mm

08:50

9.1 C

1005.7 hpa

60 %

12.9 km/h aus 115

24.1 km/h aus SE

1.7 C

6.5 C

6.9 C

8.6 C

284 W/m

0.00 mm

08:55

9.2 C

1005.7 hpa

61 %

12.9 km/h aus 117

22.5 km/h aus SE

2.0 C

6.6 C

7.1 C

8.7 C

266 W/m

0.00 mm

09:00

9.3 C

1005.7 hpa

60 %

11.3 km/h aus 117

20.9 km/h aus ESE

1.9 C

7.1 C

7.6 C

8.8 C

257 W/m

0.00 mm

09:05

9.4 C

1005.7 hpa

60 %

11.3 km/h aus 116

20.9 km/h aus SSE

2.0 C

7.3 C

7.7 C

8.9 C

241 W/m

0.00 mm

09:10

9.5 C

1005.7 hpa

60 %

11.3 km/h aus 114

24.1 km/h aus SSE

2.1 C

7.4 C

7.8 C

9.1 C

294 W/m

0.00 mm

09:15

9.8 C

1005.7 hpa

59 %

11.3 km/h aus 115

20.9 km/h aus SE

2.1 C

7.7 C

8.2 C

9.3 C

305 W/m

0.00 mm

09:20

10.0 C

1005.7 hpa

59 %

9.7 km/h aus 116

20.9 km/h aus SE

2.3 C

8.3 C

8.7 C

9.6 C

332 W/m

0.00 mm

09:25

10.1 C

1005.7 hpa

58 %

14.5 km/h aus 117

24.1 km/h aus SSE

2.2 C

7.3 C

7.8 C

9.6 C

336 W/m

0.00 mm

09:30

10.1 C

1005.8 hpa

59 %

12.9 km/h aus 117

24.1 km/h aus SE

2.5 C

7.7 C

8.2 C

9.6 C

270 W/m

0.00 mm

09:35

10.1 C

1005.8 hpa

59 %

11.3 km/h aus 115

19.3 km/h aus SSE

2.5 C

8.1 C

8.6 C

9.6 C

262 W/m

0.00 mm

09:40

10.4 C

1005.8 hpa

59 %

16.1 km/h aus 115

27.4 km/h aus SSE

2.7 C

7.3 C

7.8 C

9.9 C

370 W/m

0.00 mm

09:45

10.6 C

1005.6 hpa

60 %

11.3 km/h aus 117

24.1 km/h aus SSE

3.2 C

8.7 C

9.2 C

10.1 C

364 W/m

0.00 mm

09:50

10.7 C

1005.6 hpa

57 %

14.5 km/h aus 117

24.1 km/h aus SSE

2.5 C

7.9 C

8.5 C

10.1 C

363 W/m

0.00 mm

09:55

10.8 C

1005.6 hpa

58 %

12.9 km/h aus 117

24.1 km/h aus SE

2.8 C

8.4 C

9.0 C

10.2 C

409 W/m

0.00 mm

10:00

10.9 C

1005.6 hpa

57 %

17.7 km/h aus 113

32.2 km/h aus SSE

2.7 C

7.6 C

8.2 C

10.3 C

454 W/m

0.00 mm

10:05

11.2 C

1005.6 hpa

57 %

16.1 km/h aus 116

29.0 km/h aus SE

3.0 C

8.1 C

8.7 C

10.6 C

471 W/m

0.00 mm

10:10

11.3 C

1005.6 hpa

56 %

14.5 km/h aus 117

25.7 km/h aus SE

2.8 C

8.6 C

9.2 C

10.6 C

435 W/m

0.00 mm

10:15

11.3 C

1005.5 hpa

58 %

16.1 km/h aus 117

30.6 km/h aus SSE

3.3 C

8.3 C

8.9 C

10.7 C

418 W/m

0.00 mm

10:20

11.4 C

1005.5 hpa

58 %

14.5 km/h aus 115

25.7 km/h aus SE

3.4 C

8.7 C

9.3 C

10.8 C

459 W/m

0.00 mm

10:25

11.6 C

1005.5 hpa

57 %

14.5 km/h aus 114

25.7 km/h aus S

3.3 C

8.9 C

9.6 C

10.9 C

433 W/m

0.00 mm

10:30

11.7 C

1005.6 hpa

57 %

14.5 km/h aus 117

27.4 km/h aus SSE

3.4 C

8.9 C

9.7 C

10.9 C

453 W/m

0.00 mm

10:35

11.8 C

1005.6 hpa

57 %

12.9 km/h aus 116

25.7 km/h aus SSE

3.5 C

9.4 C

10.2 C

11.1 C

429 W/m

0.00 mm

10:40

11.9 C

1005.6 hpa

56 %

12.9 km/h aus 118

29.0 km/h aus SSE

3.4 C

9.6 C

10.4 C

11.2 C

459 W/m

0.00 mm

10:45

12.1 C

1005.9 hpa

55 %

12.9 km/h aus 115

22.5 km/h aus SSE

3.3 C

9.7 C

10.5 C

11.3 C

427 W/m

0.00 mm

10:50

12.4 C

1005.9 hpa

55 %

9.7 km/h aus 115

19.3 km/h aus SSE

3.6 C

10.8 C

11.6 C

11.6 C

467 W/m

0.00 mm

10:55

12.5 C

1005.9 hpa

54 %

11.3 km/h aus 117

19.3 km/h aus S

3.4 C

10.6 C

11.4 C

11.7 C

505 W/m

0.00 mm

11:00

12.5 C

1006.0 hpa

55 %

8.0 km/h aus 117

17.7 km/h aus SSE

3.7 C

11.1 C

11.9 C

11.7 C

444 W/m

0.00 mm

11:05

12.9 C

1006.0 hpa

54 %

4.8 km/h aus 116

11.3 km/h aus SSE

3.8 C

12.1 C

12.9 C

12.1 C

507 W/m

0.00 mm

11:10

13.1 C

1006.0 hpa

52 %

4.8 km/h aus 114

17.7 km/h aus S

3.4 C

12.1 C

13.1 C

12.1 C

510 W/m

0.00 mm

11:15

13.2 C

1005.7 hpa

53 %

9.7 km/h aus 116

19.3 km/h aus S

3.8 C

11.5 C

12.4 C

12.2 C

479 W/m

0.00 mm

11:20

13.3 C

1005.7 hpa

53 %

8.0 km/h aus 116

20.9 km/h aus SSE

3.9 C

11.9 C

12.9 C

12.3 C

433 W/m

0.00 mm

11:25

13.3 C

1005.7 hpa

53 %

11.3 km/h aus 115

19.3 km/h aus SSE

3.9 C

11.5 C

12.4 C

12.4 C

488 W/m

0.00 mm

11:30

13.7 C

1005.6 hpa

52 %

8.0 km/h aus 114

14.5 km/h aus ESE

4.0 C

12.3 C

13.3 C

12.7 C

515 W/m

0.00 mm

11:35

13.9 C

1005.6 hpa

53 %

9.7 km/h aus 114

16.1 km/h aus SSE

4.5 C

12.4 C

13.3 C

12.9 C

522 W/m

0.00 mm

11:40

13.9 C

1005.6 hpa

51 %

14.5 km/h aus 118

24.1 km/h aus SE

3.9 C

11.3 C

12.3 C

12.9 C

492 W/m

0.00 mm

11:45

14.1 C

1005.4 hpa

53 %

8.0 km/h aus 117

19.3 km/h aus SSE

4.7 C

12.9 C

13.8 C

13.2 C

502 W/m

0.00 mm

11:50

14.4 C

1005.4 hpa

52 %

4.8 km/h aus 117

11.3 km/h aus SSE

4.6 C

13.4 C

14.4 C

13.4 C

495 W/m

0.00 mm

11:55

14.3 C

1005.4 hpa

53 %

6.4 km/h aus 115

17.7 km/h aus S

4.9 C

13.3 C

14.3 C

13.3 C

466 W/m

0.00 mm

12:00

14.4 C

1005.3 hpa

52 %

6.4 km/h aus 114

16.1 km/h aus SSE

4.6 C

13.4 C

14.4 C

13.4 C

467 W/m

0.00 mm

12:05

14.5 C

1005.3 hpa

52 %

8.0 km/h aus 117

17.7 km/h aus ESE

4.8 C

13.3 C

14.3 C

13.5 C

510 W/m

0.00 mm

12:10

14.6 C

1005.3 hpa

51 %

9.7 km/h aus 117

19.3 km/h aus SE

4.6 C

13.2 C

14.2 C

13.6 C

518 W/m

0.00 mm

12:15

14.7 C

1005.2 hpa

51 %

6.4 km/h aus 116

16.1 km/h aus SE

4.7 C

13.7 C

14.7 C

13.7 C

514 W/m

0.00 mm

12:20

14.7 C

1005.2 hpa

51 %

8.0 km/h aus 114

17.7 km/h aus SSE

4.6 C

13.4 C

14.5 C

13.6 C

452 W/m

0.00 mm

12:25

14.5 C

1005.2 hpa

52 %

8.0 km/h aus 115

16.1 km/h aus ESE

4.8 C

13.3 C

14.3 C

13.5 C

373 W/m

0.00 mm

12:30

14.7 C

1005.2 hpa

53 %

6.4 km/h aus 117

12.9 km/h aus SSE

5.2 C

13.7 C

14.7 C

13.7 C

425 W/m

0.00 mm

12:35

14.9 C

1005.2 hpa

52 %

6.4 km/h aus 117

11.3 km/h aus SSE

5.2 C

13.9 C

14.9 C

13.9 C

494 W/m

0.00 mm

12:40

14.9 C

1005.2 hpa

51 %

6.4 km/h aus 115

16.1 km/h aus SE

4.8 C

13.8 C

14.9 C

13.8 C

449 W/m

0.00 mm

12:45

15.2 C

1005.1 hpa

50 %

6.4 km/h aus 115

16.1 km/h aus ESE

4.8 C

14.1 C

15.2 C

14.1 C

456 W/m

0.00 mm

12:50

15.2 C

1005.1 hpa

49 %

6.4 km/h aus 117

14.5 km/h aus S

4.6 C

14.1 C

15.2 C

14.1 C

486 W/m

0.00 mm

12:55

15.3 C

1005.1 hpa

50 %

9.7 km/h aus 117

16.1 km/h aus SSE

4.9 C

13.9 C

15.0 C

14.2 C

453 W/m

0.00 mm

13:00

15.3 C

1005.0 hpa

50 %

6.4 km/h aus 117

22.5 km/h aus S

5.0 C

14.2 C

15.3 C

14.2 C

434 W/m

0.00 mm

13:05

15.5 C

1005.0 hpa

51 %

6.4 km/h aus 114

14.5 km/h aus SSE

5.4 C

14.4 C

15.5 C

14.4 C

431 W/m

0.00 mm

13:10

15.6 C

1005.0 hpa

48 %

9.7 km/h aus 116

17.7 km/h aus ESE

4.6 C

14.2 C

15.4 C

14.4 C

485 W/m

0.00 mm

13:15

16.0 C

1004.8 hpa

51 %

8.0 km/h aus 116

17.7 km/h aus S

5.9 C

14.9 C

16.0 C

14.9 C

488 W/m

0.00 mm

13:20

15.9 C

1004.8 hpa

51 %

8.0 km/h aus 117

16.1 km/h aus S

5.8 C

14.8 C

15.9 C

14.8 C

411 W/m

0.00 mm

13:25

15.8 C

1004.8 hpa

51 %

9.7 km/h aus 116

16.1 km/h aus SE

5.7 C

14.6 C

15.6 C

14.7 C

390 W/m

0.00 mm

13:30

15.7 C

1004.7 hpa

51 %

11.3 km/h aus 115

22.5 km/h aus S

5.6 C

14.2 C

15.2 C

14.6 C

377 W/m

0.00 mm

13:35

15.7 C

1004.7 hpa

51 %

9.7 km/h aus 117

17.7 km/h aus SSE

5.6 C

14.5 C

15.6 C

14.7 C

367 W/m

0.00 mm

13:40

15.7 C

1004.7 hpa

51 %

12.9 km/h aus 117

19.3 km/h aus S

5.6 C

13.8 C

14.8 C

14.6 C

298 W/m

0.00 mm

13:45

15.6 C

1004.8 hpa

51 %

9.7 km/h aus 116

19.3 km/h aus SSE

5.4 C

14.3 C

15.3 C

14.5 C

274 W/m

0.00 mm

13:50

15.5 C

1004.8 hpa

52 %

9.7 km/h aus 114

16.1 km/h aus SE

5.7 C

14.3 C

15.3 C

14.5 C

294 W/m

0.00 mm

13:55

15.6 C

1004.8 hpa

51 %

9.7 km/h aus 115

19.3 km/h aus SSE

5.5 C

14.3 C

15.4 C

14.6 C

384 W/m

0.00 mm

14:00

15.9 C

1004.7 hpa

51 %

9.7 km/h aus 117

17.7 km/h aus S

5.8 C

14.7 C

15.8 C

14.9 C

413 W/m

0.00 mm

14:05

16.2 C

1004.7 hpa

51 %

8.0 km/h aus 117

16.1 km/h aus ESE

6.0 C

15.1 C

16.2 C

15.1 C

369 W/m

0.00 mm

14:10

16.2 C

1004.7 hpa

52 %

4.8 km/h aus 116

11.3 km/h aus SE

6.3 C

15.2 C

16.2 C

15.2 C

381 W/m

0.00 mm

14:15

16.2 C

1004.5 hpa

51 %

6.4 km/h aus 114

14.5 km/h aus SE

6.0 C

15.1 C

16.2 C

15.1 C

318 W/m

0.00 mm

14:20

16.1 C

1004.5 hpa

52 %

6.4 km/h aus 116

12.9 km/h aus SSE

6.2 C

15.1 C

16.1 C

15.1 C

310 W/m

0.00 mm

14:25

16.0 C

1004.5 hpa

52 %

6.4 km/h aus 117

14.5 km/h aus SSE

6.1 C

15.0 C

16.0 C

15.0 C

296 W/m

0.00 mm

14:30

16.1 C

1004.5 hpa

52 %

4.8 km/h aus 117

11.3 km/h aus SE

6.2 C

15.1 C

16.1 C

15.1 C

274 W/m

0.00 mm

14:35

16.2 C

1004.5 hpa

51 %

4.8 km/h aus 114

12.9 km/h aus SE

6.0 C

15.1 C

16.2 C

15.1 C

283 W/m

0.00 mm

14:40

16.2 C

1004.5 hpa

51 %

3.2 km/h aus 116

8.0 km/h aus SE

6.0 C

15.1 C

16.2 C

15.1 C

267 W/m

0.00 mm

14:45

16.3 C

1004.2 hpa

51 %

4.8 km/h aus 117

11.3 km/h aus ESE

6.1 C

15.2 C

16.3 C

15.2 C

256 W/m

0.00 mm

14:50

16.2 C

1004.2 hpa

53 %

4.8 km/h aus 117

11.3 km/h aus SE

6.6 C

15.3 C

16.2 C

15.3 C

250 W/m

0.00 mm

14:55

16.2 C

1004.2 hpa

52 %

1.6 km/h aus 116

6.4 km/h aus SE

6.3 C

15.2 C

16.2 C

15.2 C

244 W/m

0.00 mm

15:00

16.2 C

1004.2 hpa

52 %

6.4 km/h aus 115

14.5 km/h aus ESE

6.3 C

15.2 C

16.2 C

15.2 C

232 W/m

0.00 mm

15:05

16.1 C

1004.2 hpa

52 %

6.4 km/h aus 116

17.7 km/h aus ESE

6.2 C

15.1 C

16.1 C

15.1 C

228 W/m

0.00 mm

15:10

16.2 C

1004.2 hpa

52 %

6.4 km/h aus 117

16.1 km/h aus SSE

6.3 C

15.2 C

16.2 C

15.2 C

230 W/m

0.00 mm

15:15

16.1 C

1004.1 hpa

51 %

8.0 km/h aus 116

14.5 km/h aus ESE

5.9 C

15.0 C

16.1 C

15.0 C

214 W/m

0.00 mm

15:20

16.0 C

1004.1 hpa

52 %

4.8 km/h aus 114

14.5 km/h aus ESE

6.1 C

15.0 C

16.0 C

15.0 C

192 W/m

0.00 mm

15:25

16.0 C

1004.1 hpa

52 %

11.3 km/h aus 116

19.3 km/h aus ESE

6.1 C

14.7 C

15.7 C

15.0 C

215 W/m

0.00 mm

15:30

16.1 C

1004.0 hpa

52 %

9.7 km/h aus 117

16.1 km/h aus ESE

6.2 C

14.9 C

15.9 C

15.1 C

232 W/m

0.00 mm

15:35

16.1 C

1004.0 hpa

51 %

4.8 km/h aus 117

16.1 km/h aus SE

6.0 C

15.1 C

16.1 C

15.1 C

239 W/m

0.00 mm

15:40

16.2 C

1004.0 hpa

52 %

1.6 km/h aus 116

6.4 km/h aus SE

6.3 C

15.2 C

16.2 C

15.2 C

248 W/m

0.00 mm

15:45

16.1 C

1004.0 hpa

52 %

1.6 km/h aus 113

8.0 km/h aus SE

6.2 C

15.1 C

16.1 C

15.1 C

219 W/m

0.00 mm

15:50

16.0 C

1004.0 hpa

52 %

3.2 km/h aus 117

17.7 km/h aus ESE

6.1 C

15.0 C

16.0 C

15.0 C

196 W/m

0.00 mm

15:55

15.8 C

1004.0 hpa

54 %

6.4 km/h aus 118

16.1 km/h aus ESE

6.5 C

14.9 C

15.8 C

14.9 C

181 W/m

0.00 mm

16:00

15.7 C

1004.0 hpa

52 %

9.7 km/h aus 117

19.3 km/h aus SE

5.8 C

14.4 C

15.4 C

14.7 C

170 W/m

0.00 mm

16:05

15.4 C

1004.0 hpa

52 %

9.7 km/h aus 115

17.7 km/h aus SE

5.6 C

14.2 C

15.2 C

14.4 C

161 W/m

0.00 mm

16:10

15.4 C

1004.0 hpa

53 %

8.0 km/h aus 115

22.5 km/h aus SE

5.9 C

14.3 C

15.3 C

14.4 C

156 W/m

0.00 mm

16:15

15.3 C

1004.1 hpa

53 %

4.8 km/h aus 115

16.1 km/h aus SSE

5.7 C

14.3 C

15.3 C

14.3 C

143 W/m

0.00 mm

16:20

15.2 C

1004.1 hpa

53 %

6.4 km/h aus 117

17.7 km/h aus SE

5.7 C

14.2 C

15.2 C

14.2 C

136 W/m

0.00 mm

16:25

15.1 C

1004.1 hpa

53 %

8.0 km/h aus 117

17.7 km/h aus ESE

5.6 C

14.0 C

15.0 C

14.1 C

128 W/m

0.00 mm

16:30

15.1 C

1004.0 hpa

54 %

3.2 km/h aus 113

16.1 km/h aus ESE

5.8 C

14.1 C

15.1 C

14.1 C

121 W/m

0.00 mm

16:35

14.9 C

1004.0 hpa

54 %

4.8 km/h aus 115

16.1 km/h aus ESE

5.7 C

14.0 C

14.9 C

14.0 C

116 W/m

0.00 mm

16:40

14.9 C

1004.0 hpa

54 %

9.7 km/h aus 116

19.3 km/h aus SSE

5.7 C

13.6 C

14.6 C

13.9 C

112 W/m

0.00 mm

16:45

14.8 C

1004.0 hpa

55 %

6.4 km/h aus 117

16.1 km/h aus SE

5.9 C

13.9 C

14.8 C

13.9 C

104 W/m

0.00 mm

16:50

14.8 C

1004.0 hpa

54 %

6.4 km/h aus 116

14.5 km/h aus ESE

5.6 C

13.8 C

14.8 C

13.8 C

97 W/m

0.00 mm

16:55

14.7 C

1004.0 hpa

54 %

8.0 km/h aus 114

16.1 km/h aus SE

5.5 C

13.6 C

14.6 C

13.8 C

93 W/m

0.00 mm

17:00

14.7 C

1003.7 hpa

54 %

8.0 km/h aus 118

17.7 km/h aus ESE

5.5 C

13.6 C

14.5 C

13.7 C

91 W/m

0.00 mm

17:05

14.6 C

1003.7 hpa

54 %

8.0 km/h aus 117

17.7 km/h aus ESE

5.4 C

13.5 C

14.4 C

13.7 C

90 W/m

0.00 mm

17:10

14.6 C

1003.7 hpa

55 %

8.0 km/h aus 116

19.3 km/h aus SE

5.6 C

13.4 C

14.3 C

13.7 C

88 W/m

0.00 mm

17:15

14.5 C

1003.8 hpa

54 %

4.8 km/h aus 115

16.1 km/h aus ESE

5.3 C

13.6 C

14.5 C

13.6 C

82 W/m

0.00 mm

17:20

14.4 C

1003.8 hpa

55 %

1.6 km/h aus 113

8.0 km/h aus SE

5.5 C

13.6 C

14.4 C

13.6 C

77 W/m

0.00 mm

17:25

14.4 C

1003.8 hpa

56 %

1.6 km/h aus 116

9.7 km/h aus SE

5.7 C

13.6 C

14.4 C

13.6 C

66 W/m

0.00 mm

17:30

14.3 C

1003.7 hpa

55 %

4.8 km/h aus 117

17.7 km/h aus SE

5.4 C

13.4 C

14.3 C

13.4 C

59 W/m

0.00 mm

17:35

14.2 C

1003.7 hpa

55 %

8.0 km/h aus 117

17.7 km/h aus SE

5.3 C

13.1 C

13.9 C

13.3 C

50 W/m

0.00 mm

17:40

14.2 C

1003.7 hpa

55 %

8.0 km/h aus 115

17.7 km/h aus ESE

5.2 C

13.0 C

13.9 C

13.3 C

41 W/m

0.00 mm

17:45

14.1 C

1003.9 hpa

56 %

6.4 km/h aus 113

14.5 km/h aus SSE

5.4 C

13.2 C

14.1 C

13.2 C

35 W/m

0.00 mm

17:50

14.0 C

1003.9 hpa

56 %

6.4 km/h aus 117

16.1 km/h aus SE

5.4 C

13.2 C

14.0 C

13.2 C

29 W/m

0.00 mm

17:55

13.9 C

1003.9 hpa

56 %

4.8 km/h aus 117

16.1 km/h aus SSE

5.3 C

13.1 C

13.9 C

13.1 C

20 W/m

0.00 mm

18:00

13.8 C

1004.0 hpa

58 %

1.6 km/h aus 115

9.7 km/h aus SE

5.7 C

13.1 C

13.8 C

13.1 C

11 W/m

0.00 mm

18:05

13.8 C

1004.0 hpa

57 %

1.6 km/h aus 116

6.4 km/h aus SE

5.4 C

12.9 C

13.8 C

12.9 C

9 W/m

0.00 mm

18:10

13.7 C

1004.0 hpa

57 %

4.8 km/h aus 114

16.1 km/h aus ESE

5.3 C

12.9 C

13.7 C

12.9 C

8 W/m

0.00 mm

18:15

13.7 C

1004.0 hpa

57 %

6.4 km/h aus 116

17.7 km/h aus ESE

5.3 C

12.8 C

13.6 C

12.8 C

3 W/m

0.00 mm

18:20

13.6 C

1004.0 hpa

57 %

8.0 km/h aus 117

20.9 km/h aus ESE

5.2 C

12.4 C

13.3 C

12.8 C

0 W/m

0.00 mm

18:25

13.6 C

1004.0 hpa

58 %

6.4 km/h aus 117

16.1 km/h aus SE

5.5 C

12.8 C

13.6 C

12.8 C

0 W/m

0.00 mm

18:30

13.6 C

1004.2 hpa

57 %

6.4 km/h aus 114

17.7 km/h aus SE

5.2 C

12.7 C

13.5 C

12.7 C

0 W/m

0.00 mm

18:35

13.5 C

1004.2 hpa

58 %

9.7 km/h aus 115

17.7 km/h aus SSE

5.4 C

12.1 C

12.9 C

12.7 C

0 W/m

0.00 mm

18:40

13.4 C

1004.2 hpa

59 %

11.3 km/h aus 117

17.7 km/h aus S

5.6 C

11.8 C

12.6 C

12.7 C

0 W/m

0.00 mm

18:45

13.3 C

1004.5 hpa

58 %

16.1 km/h aus 117

20.9 km/h aus S

5.2 C

10.5 C

11.3 C

12.6 C

0 W/m

0.00 mm

18:50

13.3 C

1004.5 hpa

58 %

20.9 km/h aus 117

27.4 km/h aus SSE

5.2 C

9.6 C

10.4 C

12.6 C

0 W/m

0.00 mm

18:55

13.3 C

1004.5 hpa

58 %

20.9 km/h aus 114

27.4 km/h aus SSE

5.2 C

9.6 C

10.4 C

12.6 C

0 W/m

0.00 mm

19:00

13.3 C

1004.5 hpa

58 %

16.1 km/h aus 115

24.1 km/h aus SSE

5.2 C

10.4 C

11.2 C

12.5 C

0 W/m

0.00 mm

19:05

13.3 C

1004.5 hpa

58 %

6.4 km/h aus 117

17.7 km/h aus SE

5.2 C

12.4 C

13.2 C

12.5 C

0 W/m

0.00 mm

19:10

13.2 C

1004.5 hpa

58 %

3.2 km/h aus 118

8.0 km/h aus ESE

5.1 C

12.4 C

13.2 C

12.4 C

0 W/m

0.00 mm

19:15

13.2 C

1004.3 hpa

58 %

1.6 km/h aus 117

8.0 km/h aus SE

5.1 C

12.4 C

13.2 C

12.4 C

0 W/m

0.00 mm

19:20

13.2 C

1004.3 hpa

59 %

1.6 km/h aus 114

6.4 km/h aus SE

5.3 C

12.4 C

13.2 C

12.4 C

0 W/m

0.00 mm

19:25

13.1 C

1004.3 hpa

58 %

0.0 km/h aus 115

3.2 km/h aus SE

5.0 C

12.3 C

13.1 C

12.3 C

0 W/m

0.00 mm

19:30

13.1 C

1004.0 hpa

58 %

0.0 km/h aus 117

4.8 km/h aus SE

5.0 C

12.3 C

13.1 C

12.3 C

0 W/m

0.00 mm

19:35

13.1 C

1004.0 hpa

57 %

3.2 km/h aus 116

8.0 km/h aus NNE

4.7 C

12.3 C

13.1 C

12.3 C

0 W/m

0.00 mm

19:40

13.1 C

1004.0 hpa

57 %

1.6 km/h aus 117

8.0 km/h aus ENE

4.7 C

12.3 C

13.1 C

12.3 C

0 W/m

0.00 mm

19:45

13.1 C

1004.2 hpa

58 %

0.0 km/h aus 114

1.6 km/h aus ESE

5.0 C

12.3 C

13.1 C

12.3 C

0 W/m

0.00 mm

19:50

13.0 C

1004.2 hpa

58 %

0.0 km/h aus 116

0.0 km/h aus ---

4.9 C

12.2 C

13.0 C

12.2 C

0 W/m

0.00 mm

19:55

12.9 C

1004.2 hpa

59 %

1.6 km/h aus 116

6.4 km/h aus SE

5.1 C

12.2 C

12.9 C

12.2 C

0 W/m

0.00 mm

20:00

12.8 C

1004.1 hpa

59 %

3.2 km/h aus 117

11.3 km/h aus SSE

5.0 C

12.1 C

12.8 C

12.1 C

0 W/m

0.00 mm

20:05

12.7 C

1004.1 hpa

60 %

4.8 km/h aus 114

11.3 km/h aus SE

5.1 C

12.0 C

12.7 C

12.0 C

0 W/m

0.00 mm

20:10

12.7 C

1004.1 hpa

60 %

3.2 km/h aus 114

12.9 km/h aus SSE

5.1 C

11.9 C

12.7 C

11.9 C

0 W/m

0.00 mm

20:15

12.6 C

1004.0 hpa

60 %

8.0 km/h aus 118

22.5 km/h aus SSE

5.0 C

11.3 C

12.0 C

11.8 C

0 W/m

0.00 mm

20:20

12.6 C

1004.0 hpa

60 %

14.5 km/h aus 117

24.1 km/h aus SSE

5.0 C

10.0 C

10.7 C

11.8 C

0 W/m

0.00 mm

20:25

12.6 C

1004.0 hpa

60 %

16.1 km/h aus 117

25.7 km/h aus SSE

5.0 C

9.7 C

10.4 C

11.8 C

0 W/m

0.00 mm

20:30

12.6 C

1004.0 hpa

60 %

12.9 km/h aus 116

19.3 km/h aus SSE

5.0 C

10.4 C

11.1 C

11.8 C

0 W/m

0.00 mm

20:35

12.6 C

1004.0 hpa

60 %

9.7 km/h aus 115

20.9 km/h aus SSE

5.0 C

11.0 C

11.7 C

11.8 C

0 W/m

0.00 mm

20:40

12.5 C

1004.0 hpa

61 %

6.4 km/h aus 116

16.1 km/h aus SSE

5.2 C

11.6 C

12.3 C

11.8 C

0 W/m

0.00 mm

20:45

12.5 C

1003.6 hpa

62 %

8.0 km/h aus 117

14.5 km/h aus ESE

5.4 C

11.3 C

11.9 C

11.9 C

0 W/m

0.00 mm

20:50

12.4 C

1003.6 hpa

63 %

11.3 km/h aus 116

19.3 km/h aus SSE

5.6 C

10.8 C

11.4 C

11.8 C

0 W/m

0.00 mm

20:55

12.3 C

1003.6 hpa

63 %

11.3 km/h aus 115

17.7 km/h aus SSE

5.4 C

10.6 C

11.2 C

11.7 C

0 W/m

0.00 mm

21:00

12.2 C

1004.5 hpa

63 %

19.3 km/h aus 113

29.0 km/h aus S

5.4 C

8.8 C

9.4 C

11.6 C

0 W/m

0.00 mm

21:05

12.2 C

1004.5 hpa

64 %

17.7 km/h aus 116

25.7 km/h aus SSE

5.6 C

9.1 C

9.7 C

11.7 C

0 W/m

0.00 mm

21:10

12.1 C

1004.5 hpa

66 %

16.1 km/h aus 117

22.5 km/h aus SSE

5.9 C

9.4 C

9.9 C

11.6 C

0 W/m

0.00 mm

21:15

11.9 C

1004.2 hpa

68 %

12.9 km/h aus 117

22.5 km/h aus SSE

6.2 C

9.9 C

10.4 C

11.5 C

0 W/m

0.00 mm

21:20

11.7 C

1004.2 hpa

68 %

12.9 km/h aus 116

20.9 km/h aus SSE

6.0 C

9.7 C

10.1 C

11.3 C

0 W/m

0.00 mm

21:25

11.6 C

1004.2 hpa

69 %

11.3 km/h aus 115

16.1 km/h aus SSE

6.1 C

10.0 C

10.4 C

11.2 C

0 W/m

0.00 mm

21:30

11.5 C

1004.4 hpa

69 %

11.3 km/h aus 116

17.7 km/h aus SSE

6.0 C

9.8 C

10.2 C

11.1 C

0 W/m

0.00 mm

21:35

11.4 C

1004.4 hpa

69 %

11.3 km/h aus 116

19.3 km/h aus SSE

5.9 C

9.7 C

10.1 C

11.0 C

0 W/m

0.00 mm

21:40

11.3 C

1004.4 hpa

69 %

6.4 km/h aus 117

14.5 km/h aus SSE

5.8 C

10.5 C

10.9 C

10.9 C

0 W/m

0.00 mm

21:45

11.3 C

1004.2 hpa

69 %

8.0 km/h aus 116

14.5 km/h aus SSE

5.8 C

10.2 C

10.6 C

10.9 C

0 W/m

0.00 mm

21:50

11.3 C

1004.2 hpa

68 %

6.4 km/h aus 115

12.9 km/h aus S

5.6 C

10.5 C

10.9 C

10.9 C

0 W/m

0.00 mm

21:55

11.3 C

1004.2 hpa

68 %

0.0 km/h aus 112

4.8 km/h aus S

5.6 C

10.9 C

11.3 C

10.9 C

0 W/m

0.00 mm

22:00

11.3 C

1004.3 hpa

68 %

0.0 km/h aus 117

0.0 km/h aus ---

5.6 C

10.9 C

11.3 C

10.9 C

0 W/m

0.00 mm

22:05

11.3 C

1004.3 hpa

68 %

0.0 km/h aus 117

1.6 km/h aus S

5.6 C

10.9 C

11.3 C

10.9 C

0 W/m

0.00 mm

22:10

11.3 C

1004.3 hpa

68 %

0.0 km/h aus 117

1.6 km/h aus S

5.6 C

10.9 C

11.3 C

10.9 C

0 W/m

0.00 mm

22:15

11.3 C

1004.1 hpa

68 %

0.0 km/h aus 115

6.4 km/h aus S

5.6 C

10.9 C

11.3 C

10.9 C

0 W/m

0.00 mm

22:20

11.2 C

1004.1 hpa

68 %

0.0 km/h aus 116

1.6 km/h aus S

5.5 C

10.8 C

11.2 C

10.8 C

0 W/m

0.00 mm

22:25

11.2 C

1004.1 hpa

68 %

3.2 km/h aus 116

8.0 km/h aus S

5.5 C

10.8 C

11.2 C

10.8 C

0 W/m

0.00 mm

22:30

11.2 C

1004.2 hpa

68 %

8.0 km/h aus 117

14.5 km/h aus S

5.5 C

10.0 C

10.4 C

10.8 C

0 W/m

0.00 mm

22:35

11.1 C

1004.2 hpa

68 %

8.0 km/h aus 117

11.3 km/h aus S

5.4 C

9.9 C

10.3 C

10.7 C

0 W/m

0.00 mm

22:40

11.2 C

1004.2 hpa

68 %

12.9 km/h aus 116

17.7 km/h aus S

5.5 C

9.1 C

9.4 C

10.8 C

0 W/m

0.00 mm

22:45

11.2 C

1004.4 hpa

67 %

14.5 km/h aus 113

19.3 km/h aus S

5.3 C

8.7 C

9.1 C

10.8 C

0 W/m

0.00 mm

22:50

11.3 C

1004.4 hpa

67 %

12.9 km/h aus 117

17.7 km/h aus S

5.4 C

9.2 C

9.7 C

10.9 C

0 W/m

0.00 mm

22:55

11.4 C

1004.4 hpa

66 %

12.9 km/h aus 117

19.3 km/h aus S

5.3 C

9.3 C

9.7 C

10.9 C

0 W/m

0.00 mm

23:00

11.4 C

1004.5 hpa

66 %

11.3 km/h aus 115

17.7 km/h aus S

5.3 C

9.7 C

10.2 C

11.0 C

0 W/m

0.00 mm

23:05

11.5 C

1004.5 hpa

65 %

9.7 km/h aus 116

16.1 km/h aus SSW

5.1 C

9.9 C

10.4 C

11.0 C

0 W/m

0.00 mm

23:10

11.6 C

1004.5 hpa

65 %

12.9 km/h aus 114

20.9 km/h aus S

5.2 C

9.4 C

9.9 C

11.1 C

0 W/m

0.00 mm

23:15

11.7 C

1004.6 hpa

65 %

12.9 km/h aus 117

16.1 km/h aus S

5.3 C

9.6 C

10.1 C

11.2 C

0 W/m

0.00 mm

23:20

11.7 C

1004.6 hpa

64 %

11.3 km/h aus 117

19.3 km/h aus S

5.1 C

9.9 C

10.5 C

11.2 C

0 W/m

0.00 mm

23:25

11.8 C

1004.6 hpa

64 %

9.7 km/h aus 118

17.7 km/h aus S

5.2 C

10.2 C

10.8 C

11.2 C

0 W/m

0.00 mm

23:30

11.8 C

1004.8 hpa

64 %

6.4 km/h aus 116

14.5 km/h aus S

5.2 C

10.9 C

11.5 C

11.3 C

0 W/m

0.00 mm

23:35

11.8 C

1004.8 hpa

64 %

4.8 km/h aus 114

9.7 km/h aus S

5.2 C

11.2 C

11.8 C

11.2 C

0 W/m

0.00 mm

23:40

11.8 C

1004.8 hpa

64 %

4.8 km/h aus 116

9.7 km/h aus S

5.2 C

11.2 C

11.8 C

11.2 C

0 W/m

0.00 mm

23:45

11.7 C

1004.8 hpa

64 %

6.4 km/h aus 117

14.5 km/h aus S

5.1 C

10.8 C

11.3 C

11.2 C

0 W/m

0.00 mm

23:50

11.7 C

1004.8 hpa

64 %

9.7 km/h aus 117

19.3 km/h aus S

5.1 C

10.2 C

10.7 C

11.2 C

0 W/m

0.00 mm

23:55

11.6 C

1004.8 hpa

64 %

11.3 km/h aus 115

16.1 km/h aus S

5.0 C

9.8 C

10.3 C

11.1 C

0 W/m

0.00 mm